Location: Bu�n Treun
(12.1333°N, 108.3167°E)
Time: 07:27:01
(UTC+00:00)

BEESAT - Pass Details

Date: 01 October 2021
Orbit: 699 x 709 km, 98.6° (Epoch: 26 October)

Event Time Altitude Azimuth Distance (km) Brightness Sun altitude
Rises 11:28:37 0° 29° (NNE) 3,072 ? -13.5°
Reaches altitude 10° 11:31:06 10° 39° (NE) 2,155 ? -14.1°
Maximum altitude 11:35:14 30° 101° (E) 1,231 ? -15.1°
Drops below altitude 10° 11:39:22 10° 162° (SSE) 2,157 ? -16.1°
Sets 11:41:50 0° 173° (S) 3,076 ? -16.7°
